Location: Lasqueti Island Observatory
(49.4855°N, 124.2726°W)
Time: 09:36:46
(UTC-07:00)

Daily predictions for brighter satellites

Satellite Brightness Start Highest point End
(mag) Time Altitude Azimuth Time Altitude Azimuth Time Altitude Azimuth
ATLAS 2AS CENTAUR R/B 3.8 20:47:44 10° NW 20:55:23 52° WSW 21:02:25 10° SSE
NOSS 0 Rocket 4.0 20:50:16 10° SSW 20:56:22 66° ESE 21:02:33 10° NE
Resurs 01 Rocket 1.6 20:53:24 10° SSE 20:57:50 78° ENE 21:02:17 10° NNW
Cosmos 1151 Rocket 3.1 20:54:14 10° S 20:58:23 55° E 21:02:37 10° NNE
Cosmos 2098 Rocket 3.7 20:55:50 10° SSE 20:59:18 26° E 21:02:15 10° NE
SJ-11-01 4.3 20:57:01 10° SSE 21:01:40 74° ENE 21:06:22 10° N
Cosmos 1933 Rocket 3.6 20:59:50 10° N 21:04:16 86° E 21:08:37 10° S
Spot 2 Rocket 3.5 21:00:10 10° SSE 21:05:14 73° ENE 21:10:19 10° NNW
Thor Agena Rocket 3.6 21:01:00 10° NNE 21:06:16 79° ESE 21:11:34 10° SSW
SL-8 R/B 4.0 21:02:13 10° SW 21:06:48 48° SSE 21:11:26 10° E
Cosmos 1455 2.6 21:03:08 10° SSW 21:06:58 69° WNW 21:10:51 10° N
Cosmos 1727 Rocket 4.2 21:05:04 10° N 21:11:08 53° ENE 21:17:09 10° SSE
Cosmos 1980 3.7 21:06:44 10° SSW 21:12:24 77° ESE 21:18:06 10° NNE
Cosmos 1869 3.5 21:11:42 10° S 21:15:37 51° E 21:19:32 10° NNE
Cosmos 1441 Rocket 4.4 21:12:50 10° SE 21:15:50 23° E 21:18:53 10° NE
Cosmos 2297 3.8 21:11:41 10° NNW 21:17:24 76° ENE 21:23:06 10° SSE
Cosmos 2369 Rocket 3.7 21:12:49 10° NNW 21:17:28 24° NE 21:22:02 10° E
Terra 3.9 21:20:11 10° E 21:22:14 13° NE 21:24:19 10° NNE
Cosmos 614 Rocket 4.4 21:17:41 10° NNW 21:22:47 49° ENE 21:27:21 12° SE
Resurs 1-3 4.2 21:19:08 10° S 21:23:27 58° WSW 21:27:49 10° NNW
USA 186 3.5 21:21:58 10° SSW 21:23:52 22° W 21:25:52 10° NW
ATLAS CENTAUR R/B 2.1 21:20:38 10° WSW 21:24:16 52° NW 21:28:09 10° NNE
NOSS 3-4 (A) 3.9 21:19:25 10° NW 21:26:22 80° SW 21:33:43 11° SE
NOSS 3-4 (C) 3.9 21:19:31 10° NW 21:26:28 80° SW 21:33:48 11° SE
Cosmos 1869 Rocket 3.8 21:23:03 10° N 21:27:19 49° ENE 21:31:17 11° SSE
Cosmos 1939 Rocket 4.0 21:23:43 10° S 21:27:26 43° W 21:31:14 10° NNW
CZ-4B DEB 4.4 21:26:36 10° SSE 21:30:04 74° ENE 21:33:36 10° N
Cosmos 2333 Rocket 3.0 21:25:00 10° SW 21:30:33 56° NW 21:36:08 10° NNE
Cosmos 2344 4.2 21:24:57 10° S 21:31:26 31° ESE 21:38:26 10° NE
Cosmos 2219 Rocket 3.4 21:26:49 10° SW 21:32:17 48° NW 21:37:46 10° NNE
ERS-1 Rocket 3.6 21:29:53 13° SE 21:33:59 42° ENE 21:38:43 10° N
Cosmos 2218 Rocket 4.0 21:27:40 10° S 21:34:03 82° E 21:40:30 10° N
ATLAS 5 CENTAUR R/B 3.2 21:29:38 10° NW 21:34:52 38° NNE 21:40:22 11° E
SL-08 RB Rocket 4.2 21:31:59 14° SE 21:35:34 43° ENE 21:39:49 10° N
BREEZE-M DEB (TANK) 1.6 21:33:07 10° W 21:35:35 90° S 21:37:28 14° E
Cosmos 2237 Rocket 2.4 21:33:17 10° SSW 21:38:54 76° WNW 21:44:34 10° NNE
Cosmos 407 Rocket 3.6 21:34:23 10° NNW 21:39:30 73° WSW 21:44:36 10° SSE
Cosmos 2366 rocket 4.0 21:34:48 10° S 21:41:03 83° E 21:47:24 10° N
Cosmos 1825 3.6 21:40:26 10° NNW 21:43:59 38° W 21:47:30 10° SSW
Cosmos 2278 Rocket 3.8 21:40:02 10° NW 21:44:59 31° WSW 21:49:53 10° SSW
BREEZE-M DEB (TANK) 2.2 21:38:50 10° W 21:45:26 88° N 21:47:21 17° E
SL-8 Rocket 4.4 21:42:05 10° SSW 21:48:21 70° W 21:54:38 10° N
Cosmos 405 Rocket 2.9 21:45:42 11° S 21:49:23 51° E 21:53:15 10° NNE
Lacrosse 5 2.3 21:45:01 10° NW 21:50:02 57° NNE 21:53:59 16° ESE
SPOT 5 3.4 21:54:00 20° ESE 21:56:31 38° ENE 22:00:36 10° N
Cosmos 1437 Rocket 3.6 21:54:11 10° N 21:57:47 35° ENE 21:59:27 24° ESE
USA 81 4.1 21:53:10 10° N 21:58:29 87° W 22:03:41 10° S
Cosmos 1371 Rocket 4.4 21:54:12 10° SSW 21:59:31 70° WNW 22:04:55 10° NNE
SPOT 1/Viking Rocket 4.1 21:57:25 20° SE 22:00:38 44° ENE 22:05:35 10° N
Cosmos 1023 Rocket 4.4 21:56:10 10° NNW 22:01:21 86° WSW 22:05:05 19° SSE
Cosmos 676 Rocket 4.2 21:58:17 10° NNW 22:03:33 73° WSW 22:07:35 17° SSE
Cosmos 1862 3.6 22:01:09 10° NNW 22:05:11 69° W 22:08:23 15° S
H-2A R/B 1.9 22:04:33 18° SSE 22:08:18 85° ENE 22:13:16 10° NNW
USA 234 4.0 22:06:41 10° E 22:12:57 50° N 22:19:14 10° WNW
MetOp-B 4.2 22:10:39 16° S 22:14:56 77° WSW 22:20:20 10° NNW
RESURS DK-1 3.3 22:12:17 10° NNW 22:16:12 37° NE 22:17:54 26° E
Helios 1B rocket 3.3 22:13:22 10° NNE 22:17:04 30° E 22:17:39 29° ESE
Cosmos 1943 Rocket 2.9 22:13:24 10° NNW 22:18:38 41° NE 22:21:35 23° ESE
Meteor 2-10 Rocket 4.3 22:13:01 10° SSW 22:18:45 62° WNW 22:24:33 10° N
Cosmos 2242 Rocket 4.3 22:17:35 30° ESE 22:18:46 35° E 22:22:47 10° NNE
ARGOS 3.5 22:14:36 14° S 22:19:10 64° WSW 22:24:31 10° NNW
USA 245 1.8 22:19:52 83° NE 22:19:52 83° NE 22:22:05 10° NNW
CZ-4C R/B 2.5 22:15:27 10° S 22:20:20 41° ESE 22:25:55 10° NE
Cosmos 2056 Rocket 4.2 22:15:19 10° SW 22:20:40 60° WNW 22:26:01 10° NNE
Cosmos 1452 Rocket 3.5 22:16:00 10° S 22:21:10 64° ESE 22:26:23 10° NNE
Cosmos 1140 Rocket 3.9 22:20:00 10° NNW 22:25:04 57° WSW 22:28:28 20° S
Cosmos 1934 Rocket 4.1 22:25:38 25° SSE 22:28:57 52° E 22:34:49 10° NNE
SL-16 R/B 2.5 22:25:53 10° SW 22:31:32 71° WNW 22:37:13 10° NNE
Intercosmos 24 4.4 22:28:12 21° S 22:32:02 64° E 22:36:14 10° NNE
Cosmos 1850 Rocket 3.9 22:29:37 10° NNW 22:34:51 87° ENE 22:37:13 33° SSE
Resurs 01 Rocket 4.4 22:32:41 10° WSW 22:34:53 13° W 22:37:05 10° WNW
Cosmos 921 Rocket 3.5 22:35:24 38° ESE 22:35:46 38° ESE 22:39:46 10° NE
Cosmos 1862 Rocket 3.8 22:38:10 41° SE 22:39:10 49° E 22:43:25 10° NNE
Landsat 7 3.8 22:39:26 37° SSE 22:41:18 74° ENE 22:46:05 10° N
Cosmos 1741 Rocket 4.0 22:39:13 10° NNW 22:44:35 83° WSW 22:46:53 35° SSE
Cosmos 1606 3.4 22:48:29 38° E 22:48:29 38° E 22:51:56 10° NNE
SL-8 R/B 3.6 22:44:21 10° W 22:49:10 80° S 22:51:21 32° E
Gblst 52 Del rocket 4.3 22:45:22 10° SW 22:50:37 46° SE 22:55:56 10° ENE
Helios 1A 3.6 22:50:29 31° SSW 22:52:11 52° W 22:56:18 10° NNW
Cosmos 1461 3.6 22:49:58 10° NNW 22:54:42 53° NE 22:56:11 38° E
BREEZE M DEB (TANK) 3.6 22:44:30 10° W 22:58:53 90° NNW 23:01:41 24° E
Cosmos 1603 3.6 22:55:26 24° SSW 22:58:55 72° ESE 23:04:30 10° NNE
Terra 1.8 22:57:51 47° SE 22:59:10 75° ENE 23:03:57 10° N
Cosmos 1943 3.5 22:58:26 40° SE 22:59:24 44° ESE 23:04:47 10° NE
Meteor 1-29 3.2 22:56:15 10° NNE 22:59:11 55° ENE 22:59:11 55° ENE
Cosmos 1933 4.4 22:57:17 18° SW 23:00:03 44° WNW 23:04:00 10° N
Cosmos 1821 Rocket 4.2 22:55:35 16° SSW 23:00:52 73° WNW 23:07:09 10° N
Cosmos 2369 Rocket 2.2 22:56:26 10° NNW 23:02:10 81° WSW 23:04:12 42° SSE
Cosmos 1633 2.5 22:59:19 10° NNW 23:02:54 72° W 23:03:07 69° SW
CZ-2C R/B 3.6 23:01:47 10° NNE 23:06:32 31° E 23:06:44 31° E
IGS 5A 3.4 23:09:29 61° S 23:10:09 78° WSW 23:14:21 10° NNW
Cosmos 2263 4.1 23:04:42 10° NNW 23:10:22 88° ENE 23:12:03 47° SSE
Meteor 1-4 Rocket 2.7 23:07:10 10° NNW 23:10:36 58° W 23:10:38 58° WSW
Cosmos 1782 3.0 23:11:02 54° ENE 23:11:02 54° ENE 23:14:38 10° NNE
Meteor 1-11 Rocket 4.3 23:06:48 10° N 23:12:07 41° ENE 23:13:27 36° ESE
ERS-1 Rocket 4.4 23:09:53 17° SW 23:12:54 30° W 23:17:20 10° NNW
Cosmos 1733 Rocket 3.8 23:09:11 10° NNW 23:13:22 45° W 23:14:44 34° SW
Cosmos 2123 Rocket 4.2 23:08:59 10° NNW 23:15:15 68° W 23:18:14 32° SSW
Spot 4 4.3 23:15:21 42° E 23:16:06 46° ENE 23:20:41 10° N
CARTOSAT-1 3.7 23:16:13 55° SSW 23:16:59 68° WSW 23:21:18 10° NNW
USA 267 3.5 23:13:20 10° ENE 23:19:34 45° SE 23:20:46 41° SSE
Cosmos 389 Rocket 3.0 23:16:23 10° N 23:19:16 54° NNE 23:19:16 54° NNE
ATLAS 5 CENTAUR R/B 2.5 23:14:10 10° NW 23:19:58 66° SW 23:21:55 44° S
Meteor 1-27 Rocket 4.5 23:22:47 35° ESE 23:23:18 36° E 23:28:31 10° NNE
Cosmos 1331 Rocket 4.2 23:23:13 50° ESE 23:23:24 50° ESE 23:28:28 10° NNE
Cosmos 1602 3.9 23:20:41 10° N 23:24:22 61° NE 23:24:22 61° NE
Cosmos 1536 4.3 23:21:20 10° NNE 23:24:23 25° ENE 23:24:23 25° ENE
Cosmos 1271 Rocket 3.9 23:21:09 10° N 23:24:26 32° ENE 23:24:26 32° ENE
GEOS 3 Rocket 3.5 23:22:20 10° NE 23:27:44 78° SE 23:30:13 33° SSW
Lacrosse 5 2.4 23:28:08 10° WNW 23:32:57 43° SW 23:33:10 43° SW
YAOGAN 11 4.3 23:32:56 54° SW 23:33:21 57° WSW 23:37:38 10° NNW
Sich 1 Rocket 3.5 23:29:17 10° N 23:33:55 88° WSW 23:34:16 77° S
Okean 1-7 3.5 23:34:49 47° ENE 23:34:49 47° ENE 23:38:24 10° NNE
SPOT 5 4.3 23:33:13 22° SW 23:34:43 27° W 23:38:28 10° NW
CZ-2C R/B 2.7 23:36:39 66° SSW 23:37:17 79° WSW 23:42:11 10° NNW
Cosmos 1782 Rocket 3.4 23:34:18 10° N 23:38:49 85° ENE 23:38:55 84° ESE
Cosmos 1486 Rocket 4.1 23:34:40 10° NNW 23:39:56 67° ENE 23:40:43 58° ESE
Cosmos 2173 Rocket 4.2 23:41:15 47° ESE 23:42:18 51° E 23:48:25 10° NNE
Okean 2 Rocket 3.3 23:40:15 10° N 23:44:28 60° ENE 23:44:28 60° ENE
Cosmos 2344 3.9 23:37:25 10° SW 23:45:01 70° NW 23:54:05 10° NE
H-2A R/B 4.4 23:45:46 10° WSW 23:48:24 14° W 23:51:00 10° NW
SAR-Lupe-4 4.4 23:50:09 49° NW 23:50:09 49° NW 23:52:57 10° NNW
Cosmos 1605 Rocket 4.4 23:48:29 32° SW 23:51:30 62° WNW 23:57:53 10° N
Helios 1B rocket 4.1 23:48:41 10° N 23:52:19 30° WNW 23:54:00 22° WSW
Cosmos 1110 Rocket 3.9 23:51:57 61° SSW 23:52:55 87° WNW 23:58:17 10° NNE
Cosmos 1503 Rocket 4.4 23:48:20 10° NNW 23:53:25 49° ENE 23:54:07 46° E
RESURS DK-1 3.9 23:50:35 10° NW 23:53:48 27° W 23:53:48 27° W
